Location: Buchdorf
(48.7842°N, 10.8275°E)
Time: 18:09:37
(UTC+00:00)

SPOT 1/Viking Rocket - Pass Details

Date: 09 April 2020
Orbit: 776 x 795 km, 98.5° (Epoch: 03 June)

Event Time Altitude Azimuth Distance (km) Brightness Sun altitude
Exits shadow 19:50:09 29° 114° (ESE) 1,420 4.3 -17.3°
Maximum altitude 19:52:10 42° 66° (ENE) 1,128 4.1 -17.6°
Drops below altitude 10° 19:57:05 10° 358° (N) 2,377 6.6 -18.2°
Sets 19:59:31 0° 351° (N) 3,311 7.5 -18.5°
